This is the latest recevied weather packets stored in our database for station/object KI5GCD-13. If no packets are shown the sender has not sent any weather packets the latest 1 day(s).
| Time | Temp. | Humidity | Pressure | Rain* | Wind** | Luminosity | Snow |
|---|---|---|---|---|---|---|---|
| 1778054387 | 8.33° C | 91% | 1008.9 hPa | 0 mm | 0.45 m/s, 262° | - | - |
| 1778054087 | 8.33° C | 91% | 1008.8 hPa | 0 mm | 0.45 m/s, 286° | - | - |
| 1778053787 | 8.33° C | 92% | 1008.8 hPa | 0 mm | 0.89 m/s, 300° | - | - |
| 1778053487 | 8.33° C | 92% | 1008.7 hPa | 0 mm | 0.45 m/s, 325° | - | - |
| 1778053187 | 8.33° C | 92% | 1008.8 hPa | 0 mm | 0 m/s | - | - |
| 1778052887 | 8.33° C | 93% | 1008.8 hPa | 0 mm | 0 m/s | - | - |
| 1778052587 | 8.33° C | 93% | 1008.7 hPa | 0 mm | 0.45 m/s, 242° | - | - |
| 1778052287 | 8.33° C | 93% | 1008.7 hPa | 0 mm | 0.45 m/s, 251° | - | - |
| 1778051987 | 8.33° C | 94% | 1008.6 hPa | 0 mm | 0 m/s | - | - |
| 1778051687 | 8.33° C | 94% | 1008.8 hPa | 0 mm | 0.45 m/s, 255° | - | - |
| 1778051387 | 8.33° C | 94% | 1009 hPa | 0 mm | 0.89 m/s, 208° | - | - |
| 1778051087 | 8.33° C | 95% | 1009.2 hPa | 0 mm | 0.45 m/s, 243° | - | - |
| 1778050787 | 8.33° C | 94% | 1009.3 hPa | 0 mm | 0.45 m/s, 341° | - | - |
| 1778050487 | 8.33° C | 94% | 1009.5 hPa | 0 mm | 0.45 m/s, 236° | - | - |
| 1778050187 | 8.33° C | 95% | 1009.5 hPa | 0 mm | 1.34 m/s, 283° | - | - |
| 1778049887 | 8.33° C | 95% | 1009.5 hPa | 0 mm | 0 m/s | - | - |
| 1778049587 | 8.33° C | 95% | 1009.5 hPa | 0 mm | 0.89 m/s, 290° | - | - |
| 1778049287 | 8.33° C | 96% | 1009.4 hPa | 0 mm | 0 m/s | - | - |
| 1778048987 | 8.33° C | 95% | 1009.2 hPa | 0 mm | 2.68 m/s, 58° | - | - |
| 1778048687 | 8.33° C | 97% | 1009.3 hPa | 0 mm | 0.45 m/s, 255° | - | - |
| 1778048387 | 8.33° C | 97% | 1009.5 hPa | 0 mm | 0.45 m/s, 95° | - | - |
| 1778048087 | 7.78° C | 98% | 1009.2 hPa | 0 mm | 0.45 m/s, 269° | - | - |
| 1778047787 | 7.78° C | 98% | 1009.2 hPa | 0 mm | 0.45 m/s, 299° | - | - |
| 1778047487 | 7.78° C | 99% | 1008.8 hPa | 0 mm | 1.79 m/s, 14° | - | - |
| 1778047187 | 7.78° C | 99% | 1009.1 hPa | 0 mm | 0.89 m/s, 21° | - | - |
* Rain latest hour (hover to see other rain measurements)
** Current wind speed in m/s (hover to see current wind gust speed)